IBE0364 KDFW-LEMD

Flight info

Callsign IBE0364
Flight time N/A
Altitude 35000
Route AKUNA9 MLC DCT FAM DCT VHP DCT ROD DCT SLT DCT HNK DCT BOS DCT KANNI/M084F390 DCT CARAC DCT 4350N DCT 4340N/M084F410 DCT 4230N DCT 4120N DCT DETOX/N0483F410 DCT OGERO/N0485F400 Z409 TLD
Aircraft A359/H-SDE2E3GHIJ3J4J5LM1ORWXY/LB1D1

Departure

Time 2026-05-06 02:24
Airport Dallas Fort Worth International Airport (KDFW)

Arrival

Time N/A
Airport Adolfo Suárez Madrid–Barajas Airport (LEMD)
Time Latitude Longitude Altitude Speed Heading
2026-05-06 02:02 32.89496 -97.04464 596 ft 0 kts
2026-05-06 02:05 32.89494 -97.04465 596 ft 0 kts
2026-05-06 02:05 32.89481 -97.04464 595 ft 2 kts 351°
2026-05-06 02:05 32.89466 -97.04459 595 ft 2 kts 335°
2026-05-06 02:05 32.89453 -97.04450 594 ft 2 kts 322°
2026-05-06 02:06 32.89442 -97.04438 594 ft 2 kts 308°
2026-05-06 02:06 32.89434 -97.04424 594 ft 2 kts 295°
2026-05-06 02:06 32.89428 -97.04407 593 ft 2 kts 282°
2026-05-06 02:06 32.89426 -97.04391 593 ft 0 kts 270°
2026-05-06 02:07 32.89427 -97.04386 593 ft 0 kts 269°
2026-05-06 02:07 32.89426 -97.04386 593 ft 0 kts 269°
2026-05-06 02:16 32.89426 -97.04387 593 ft 0 kts 269°
2026-05-06 02:16 32.89426 -97.04400 593 ft 5 kts 269°
2026-05-06 02:16 32.89425 -97.04494 595 ft 16 kts 270°
2026-05-06 02:17 32.89428 -97.04629 597 ft 16 kts 270°
2026-05-06 02:17 32.89410 -97.04751 599 ft 13 kts 233°
2026-05-06 02:17 32.89366 -97.04767 599 ft 0 kts 168°
2026-05-06 02:17 32.89299 -97.04784 598 ft 14 kts 193°
2026-05-06 02:18 32.89195 -97.04778 594 ft 16 kts 174°
2026-05-06 02:18 32.89069 -97.04771 591 ft 19 kts 179°
2026-05-06 02:18 32.88927 -97.04770 589 ft 21 kts 180°
2026-05-06 02:18 32.88775 -97.04771 586 ft 19 kts 180°
2026-05-06 02:19 32.88633 -97.04772 583 ft 21 kts 180°
2026-05-06 02:19 32.88505 -97.04712 581 ft 21 kts 107°
2026-05-06 02:19 32.88500 -97.04533 578 ft 20 kts 89°
2026-05-06 02:19 32.88502 -97.04354 574 ft 22 kts 90°
2026-05-06 02:20 32.88501 -97.03998 571 ft 21 kts 91°
2026-05-06 02:20 32.88500 -97.03847 571 ft 16 kts 90°
2026-05-06 02:20 32.88500 -97.03715 573 ft 15 kts 90°
2026-05-06 02:21 32.88500 -97.03591 575 ft 14 kts 90°
2026-05-06 02:21 32.88500 -97.03477 577 ft 13 kts 91°
2026-05-06 02:21 32.88460 -97.03379 576 ft 14 kts 151°
2026-05-06 02:21 32.88349 -97.03368 574 ft 19 kts 182°
2026-05-06 02:22 32.88208 -97.03376 574 ft 20 kts 180°
2026-05-06 02:22 32.88060 -97.03378 572 ft 22 kts 180°
2026-05-06 02:22 32.87941 -97.03365 569 ft 13 kts 147°
2026-05-06 02:22 32.87906 -97.03263 569 ft 14 kts 92°
2026-05-06 02:23 32.87905 -97.03136 567 ft 16 kts 90°
2026-05-06 02:23 32.87944 -97.03016 569 ft 14 kts 31°
2026-05-06 02:23 32.88060 -97.03008 571 ft 32 kts 360°
2026-05-06 02:23 32.88540 -97.03007 574 ft 101 kts
2026-05-06 02:24 32.89457 -97.03001 575 ft 159 kts
2026-05-06 02:24 32.90639 -97.02996 975 ft 177 kts 359°
2026-05-06 02:24 32.91873 -97.02998 1644 ft 181 kts
2026-05-06 02:24 32.93116 -97.02958 2403 ft 180 kts
2026-05-06 02:25 32.94407 -97.02904 2705 ft 192 kts
2026-05-06 02:25 32.95794 -97.02874 2982 ft 206 kts 360°
2026-05-06 02:25 32.97281 -97.02834 3236 ft 222 kts
2026-05-06 02:25 32.98879 -97.02783 3483 ft 240 kts
2026-05-06 02:26 33.00605 -97.02718 3850 ft 254 kts
2026-05-06 02:26 33.02420 -97.02639 4263 ft 266 kts
2026-05-06 02:26 33.04303 -97.02547 4712 ft 277 kts
2026-05-06 02:26 33.06227 -97.02496 5374 ft 278 kts
2026-05-06 02:27 33.08123 -97.02195 6087 ft 279 kts 13°
2026-05-06 02:27 33.10002 -97.01417 6496 ft 292 kts 22°
2026-05-06 02:27 33.11881 -97.00386 7054 ft 298 kts 24°
2026-05-06 02:27 33.13760 -96.99322 7647 ft 301 kts 22°
2026-05-06 02:28 33.15659 -96.98267 8206 ft 305 kts 21°
2026-05-06 02:28 33.17587 -96.97211 8788 ft 309 kts 21°
2026-05-06 02:28 33.19579 -96.96129 9363 ft 312 kts 20°